Time_in_sec,Latitude,Longitude,Altitude,Nbsat_max_qualitysignal,Nbsat_locked,valid_data
1323442018.40152645,47.37543106,8.55014515,492.50912476,0,7,1
1323442138.05350232,47.37532043,8.55029106,500.39486694,6,10,1
1323442138.10109901,47.37532043,8.55029106,500.41525269,6,10,1
1323442138.15252090,47.37532043,8.55029106,500.44067383,6,10,1
1323442138.20100737,47.37532043,8.55029202,500.46606445,6,10,1
1323442138.25350308,47.37532425,8.55029106,500.48065186,6,10,1
1323442138.30081415,47.37532425,8.55029106,500.50595093,6,10,1
1323442138.35286188,47.37532425,8.55029106,500.53121948,6,10,1
1323442138.40154839,47.37532043,8.55029202,500.55645752,6,10,1
1323442138.45250702,47.37532043,8.55029202,500.58166504,6,10,1
1323442138.51353836,47.37532425,8.55029202,500.58517456,6,10,1
1323442138.55414462,47.37532425,8.55029297,500.61517334,6,10,1
1323442138.60556006,47.37532425,8.55029297,500.63516235,6,10,1
1323442138.65351176,47.37532425,8.55029297,500.66009521,6,10,1
1323442138.70558000,47.37532043,8.55029297,500.68502808,6,10,1
1323442138.75256562,47.37532425,8.55029297,500.69653320,6,10,1
1323442138.81352925,47.37532425,8.55029297,500.72137451,6,10,1
1323442138.85360670,47.37532425,8.55029297,500.75112915,6,10,1
1323442138.90164137,47.37532425,8.55029297,500.77093506,6,10,1
1323442138.96068883,47.37532043,8.55029297,500.79571533,6,10,1
1323442139.00463390,47.37532043,8.55029202,500.80700684,6,10,1
1323442139.05350375,47.37532043,8.55029202,500.82669067,6,10,1
1323442139.10548878,47.37532043,8.55029297,500.85128784,6,10,1
1323442139.15375972,47.37532043,8.55029297,500.87585449,6,10,1
1323442139.20554185,47.37532043,8.55029297,500.90039062,6,10,1
1323442139.25354481,47.37532043,8.55029202,500.91390991,6,10,1
1323442139.31257200,47.37532043,8.55029202,500.93832397,6,10,1
1323442139.35750055,47.37532043,8.55029202,500.96759033,6,10,1
1323442139.40451002,47.37532043,8.55029202,500.98709106,6,10,1
1323442139.45252943,47.37532043,8.55029202,501.01144409,6,10,1
1323442139.51254225,47.37532043,8.55029297,501.02117920,6,10,1
1323442139.55437708,47.37532043,8.55029297,501.05026245,6,10,1
1323442139.60151458,47.37532043,8.55029297,501.06961060,6,10,1
1323442139.65257430,47.37532043,8.55029297,501.09381104,6,10,1
1323442139.70143771,47.37532043,8.55029297,501.11798096,6,10,1
1323442139.75350428,47.37532043,8.55029297,501.12365723,6,10,1
1323442139.80450463,47.37532043,8.55029392,501.14767456,6,10,1
1323442139.86153316,47.37532043,8.55029392,501.17166138,6,10,1
1323442139.90153193,47.37532043,8.55029392,501.20040894,6,10,1
1323442139.95520759,47.37532043,8.55029392,501.21954346,6,10,1
1323442140.00219011,47.37532043,8.55029297,501.23144531,6,10,1
1323442140.05339050,47.37532043,8.55029297,501.25527954,6,10,1
1323442140.10595369,47.37532043,8.55029297,501.27908325,6,10,1
1323442140.16450810,47.37532043,8.55029297,501.30285645,6,10,1
1323442140.20530248,47.37532043,8.55029392,501.33135986,6,10,1
1323442140.25350213,47.37532043,8.55029392,501.33056641,6,10,1
1323442140.30595851,47.37532043,8.55029392,501.35418701,6,10,1
1323442140.35252404,47.37532043,8.55029392,501.37777710,6,10,1
1323442140.40227532,47.37532043,8.55029392,501.40133667,6,10,1
1323442140.45367002,47.37532043,8.55029392,501.42486572,6,10,1
1323442140.51353145,47.37532043,8.55029488,501.42938232,6,10,1
1323442140.55350327,47.37532043,8.55029488,501.45745850,6,10,1
1323442140.61315417,47.37532043,8.55029488,501.47616577,6,10,1
1323442140.66149306,47.37532043,8.55029488,501.50421143,6,10,1
1323442140.70153594,47.37532043,8.55029488,501.52752686,6,10,1
1323442140.76466751,47.37532425,8.55029488,501.52624512,6,10,1
1323442140.80151868,47.37532043,8.55029488,501.54702759,6,10,1
1323442140.85254455,47.37532043,8.55029488,501.56549072,6,10,1
1323442140.90463662,47.37532043,8.55029488,501.58859253,6,10,1
1323442140.96098518,47.37532043,8.55029488,501.61163330,5,10,1
1323442141.01264548,47.37532043,8.55029583,501.60812378,5,10,1
1323442141.06150246,47.37532043,8.55029583,501.63095093,5,10,1
1323442141.10497141,47.37532043,8.55029583,501.65371704,5,10,1
1323442141.15287280,47.37532043,8.55029583,501.67193604,5,10,1
1323442141.20149755,47.37532043,8.55029583,501.69467163,5,10,1
1323442141.26565814,47.37532043,8.55029583,501.68466187,5,10,1
1323442141.30163431,47.37532043,8.55029583,501.71170044,5,10,1
1323442141.35353589,47.37532043,8.55029583,501.72967529,5,10,1
1323442141.41288519,47.37532043,8.55029583,501.75213623,5,10,1
1323442141.46150827,47.37532043,8.55029583,501.77905273,5,10,1
1323442141.51266956,47.37532043,8.55029678,501.75668335,5,10,1
1323442141.56465816,47.37532043,8.55029678,501.77886963,5,10,1
1323442141.60356498,47.37532043,8.55029678,501.80102539,5,10,1
1323442141.65251780,47.37532043,8.55029678,501.81872559,5,10,1
1323442141.70466924,47.37532043,8.55029678,501.84085083,5,10,1
1323442141.76552343,47.37532043,8.55029774,501.81890869,5,10,1
1323442141.80567598,47.37532043,8.55029774,501.84036255,5,10,1
1323442141.86148643,47.37532043,8.55029774,501.85781860,5,10,1
1323442141.91338277,47.37532043,8.55029774,501.88400269,5,10,1
1323442141.96157193,47.37532043,8.55029774,501.90579224,5,10,1
1323442142.00185370,47.37532043,8.55029869,501.87213135,5,10,1
1323442142.06465173,47.37532043,8.55029869,501.88934326,5,10,1
1323442142.11352873,47.37532043,8.55029869,501.91510010,5,10,1
1323442142.16559219,47.37532043,8.55029869,501.93652344,5,10,1
1323442142.21363258,47.37532043,8.55029869,501.95794678,5,10,1
1323442142.26181245,47.37532043,8.55029964,501.91671753,5,10,1
1323442142.31264710,47.37532043,8.55029964,501.93780518,5,10,1
1323442142.36157537,47.37532043,8.55029964,501.95883179,5,10,1
1323442142.41352987,47.37532043,8.55029964,501.97982788,5,10,1
1323442142.46419191,47.37532043,8.55030060,502.00076294,5,10,1
1323442142.51496840,47.37531662,8.55030155,501.95910645,5,10,1
1323442142.55351639,47.37531662,8.55030155,501.97970581,5,10,1
1323442142.61256289,47.37531662,8.55030155,501.99618530,5,10,1
1323442142.66152263,47.37531662,8.55030155,502.02081299,5,10,1
1323442142.70144081,47.37531662,8.55030155,502.04132080,5,10,1
1323442142.76146245,47.37531662,8.55030251,502.00198364,5,10,1
1323442142.81365752,47.37531662,8.55030155,502.01654053,5,10,1
1323442142.86486435,47.37531662,8.55030155,502.03668213,5,10,1
1323442142.91353178,47.37531662,8.55030155,502.05679321,5,10,1
1323442142.96458578,47.37531662,8.55030155,502.07690430,6,10,1
1323442143.01284194,47.37531662,8.55030155,502.03878784,6,10,1
1323442143.06156349,47.37531662,8.55030155,502.05859375,6,10,1
1323442143.11431026,47.37531662,8.55030155,502.07836914,6,10,1
1323442143.16533017,47.37531662,8.55030155,502.09808350,6,10,1
1323442143.21355128,47.37531662,8.55030155,502.11779785,6,10,1
1323442143.26463127,47.37531662,8.55030155,502.08395386,6,10,1
1323442143.31351256,47.37531662,8.55030251,502.10339355,6,10,1
1323442143.36162591,47.37531662,8.55030251,502.12277222,6,10,1
1323442143.41358423,47.37531662,8.55030251,502.14215088,6,10,1
1323442143.46151471,47.37531662,8.55030251,502.16149902,6,10,1
1323442143.51314211,47.37531662,8.55030251,502.12777710,6,10,1
1323442143.56114793,47.37531662,8.55030251,502.14685059,6,10,1
1323442143.61356139,47.37531662,8.55030251,502.16589355,6,10,1
1323442143.66153932,47.37531662,8.55030346,502.18493652,6,10,1
1323442143.71352100,47.37531662,8.55030346,502.20391846,6,10,1
1323442143.76102376,47.37531662,8.55030251,502.17459106,6,10,1
1323442143.81285810,47.37531662,8.55030251,502.19332886,6,10,1
1323442143.86150646,47.37531662,8.55030251,502.21203613,6,10,1
1323442143.91256595,47.37531662,8.55030251,502.23071289,6,10,1
1323442143.96164322,47.37531662,8.55030251,502.24938965,6,10,1
1323442144.01352167,47.37531662,8.55030251,502.21630859,6,10,1
1323442144.06464243,47.37531662,8.55030346,502.23471069,6,10,1
1323442144.11352658,47.37531662,8.55030346,502.25308228,6,10,1
1323442144.16151500,47.37531662,8.55030346,502.27142334,6,10,1
1323442144.21288323,47.37531662,8.55030346,502.28976440,6,10,1
1323442144.26148176,47.37532043,8.55030346,502.25976562,6,10,1
1323442144.31283092,47.37532043,8.55030346,502.27783203,6,10,1
1323442144.36161304,47.37532043,8.55030346,502.29586792,6,10,1
1323442144.41355991,47.37532043,8.55030346,502.31387329,6,10,1
1323442144.46156573,47.37532043,8.55030346,502.33187866,6,10,1
1323442144.51374936,47.37532043,8.55030346,502.30664062,6,10,1
1323442144.56155610,47.37532043,8.55030346,502.32440186,6,10,1
1323442144.61270499,47.37532043,8.55030346,502.34216309,6,10,1
1323442144.66149640,47.37532043,8.55030346,502.35986328,6,10,1
1323442144.71273065,47.37532043,8.55030346,502.37756348,6,10,1
1323442144.76149583,47.37532043,8.55030346,502.35098267,6,10,1
1323442144.81357408,47.37532043,8.55030346,502.36840820,6,10,1
1323442144.86150599,47.37532043,8.55030346,502.38583374,6,10,1
1323442144.91347766,47.37532043,8.55030346,502.40319824,6,10,1
1323442144.96550846,47.37532043,8.55030441,502.42056274,6,10,1
1323442145.01650000,47.37532043,8.55030251,502.40234375,6,10,1
1323442145.06547260,47.37532043,8.55030346,502.41952515,6,10,1
1323442145.11350608,47.37532043,8.55030346,502.43664551,6,10,1
1323442145.16165471,47.37532043,8.55030346,502.45376587,6,10,1
1323442145.21205497,47.37532043,8.55030346,502.47082520,6,10,1
1323442145.26450777,47.37532043,8.55030346,502.45230103,6,10,1
1323442145.31352019,47.37532043,8.55030346,502.46917725,6,10,1
1323442145.36162353,47.37532043,8.55030346,502.48602295,6,10,1
1323442145.41275954,47.37532043,8.55030346,502.50286865,6,10,1
1323442145.46148610,47.37532043,8.55030346,502.51965332,6,10,1
1323442145.51257825,47.37532043,8.55030346,502.49291992,6,10,1
1323442145.56149364,47.37532043,8.55030346,502.50946045,6,10,1
1323442145.61364532,47.37532043,8.55030346,502.52597046,6,10,1
1323442145.66176319,47.37532043,8.55030346,502.54244995,6,10,1
1323442145.71353555,47.37532043,8.55030346,502.55892944,6,10,1
1323442145.76448750,47.37532425,8.55030441,502.52551270,6,10,1
1323442145.81262970,47.37532425,8.55030441,502.54171753,6,10,1
1323442145.86150050,47.37532425,8.55030441,502.55789185,6,10,1
1323442145.91352153,47.37532425,8.55030441,502.57403564,6,10,1
1323442145.96461010,47.37532425,8.55030441,502.59011841,6,10,1
1323442146.01751161,47.37532425,8.55030346,502.55117798,6,10,1
1323442146.06131172,47.37532425,8.55030346,502.56701660,6,10,1
1323442146.11349821,47.37532425,8.55030346,502.58282471,6,10,1
1323442146.16151547,47.37532425,8.55030346,502.59857178,6,10,1
1323442146.21285582,47.37532425,8.55030346,502.61431885,6,10,1
1323442146.26150990,47.37532425,8.55030251,502.57235718,6,10,1
1323442146.31353068,47.37532425,8.55030251,502.58779907,6,10,1
1323442146.36165738,47.37532425,8.55030251,502.60317993,6,10,1
1323442146.41355824,47.37532425,8.55030251,502.61856079,6,10,1
1323442146.46148801,47.37532425,8.55030251,502.63394165,6,10,1
1323442146.51385617,47.37532425,8.55030155,502.58679199,6,10,1
1323442146.56505895,47.37532425,8.55030155,502.60183716,6,10,1
1323442146.61305475,47.37532425,8.55030155,502.61688232,6,10,1
1323442146.66148448,47.37532425,8.55030155,502.63186646,6,10,1
1323442146.71316814,47.37532425,8.55030155,502.64685059,6,10,1
1323442146.76105738,47.37532425,8.55030155,502.58377075,6,10,1
1323442146.81354260,47.37532425,8.55030155,502.59832764,6,10,1
1323442146.86555052,47.37532425,8.55030155,502.61288452,6,10,1
1323442146.91352415,47.37532425,8.55030155,502.62738037,6,10,1
1323442146.96151209,47.37532425,8.55030155,502.64187622,5,10,1
1323442147.01287150,47.37532425,8.55030155,502.58087158,5,10,1
1323442147.06150150,47.37532425,8.55030155,502.59490967,5,10,1
1323442147.11304116,47.37532425,8.55030155,502.60891724,5,10,1
1323442147.16160035,47.37532425,8.55030155,502.62289429,5,10,1
1323442147.21352077,47.37532425,8.55030155,502.63687134,5,10,1
1323442147.26549673,47.37532806,8.55030060,502.58474731,5,10,1
1323442147.31253457,47.37532806,8.55030060,502.59835815,5,10,1
1323442147.36476016,47.37532806,8.55030060,502.61193848,5,10,1
1323442147.41280365,47.37532806,8.55030060,502.62548828,5,10,1
1323442147.46150804,47.37532806,8.55030060,502.63900757,5,10,1
1323442147.51261115,47.37532806,8.55029964,502.58154297,5,10,1
1323442147.56564546,47.37532806,8.55029964,502.59469604,5,10,1
1323442147.61355400,47.37532806,8.55029964,502.60781860,5,10,1
1323442147.66080165,47.37532806,8.55029964,502.62091064,5,10,1
1323442147.71253562,47.37532806,8.55029964,502.63397217,5,10,1
1323442147.76115489,47.37532806,8.55029869,502.57846069,5,10,1
1323442147.81284118,47.37532806,8.55029869,502.59115601,5,10,1
1323442147.86548376,47.37532806,8.55029869,502.60379028,5,10,1
1323442147.91254330,47.37532806,8.55029869,502.61642456,5,10,1
1323442147.96555376,47.37532806,8.55029869,502.62902832,5,10,1
1323442148.01429105,47.37532806,8.55029774,502.57681274,5,10,1
1323442148.06465626,47.37532806,8.55029774,502.58911133,5,10,1
1323442148.11388326,47.37532806,8.55029774,502.60137939,5,10,1
1323442148.16554189,47.37532806,8.55029774,502.61361694,5,10,1
1323442148.21353102,47.37532806,8.55029774,502.62582397,5,10,1
1323442148.26152349,47.37532806,8.55029774,502.56964111,5,10,1
1323442148.31258225,47.37532806,8.55029678,502.58151245,5,10,1
1323442148.36548901,47.37532806,8.55029678,502.59332275,5,10,1
1323442148.41364408,47.37532806,8.55029678,502.60510254,5,10,1
1323442148.46149373,47.37532806,8.55029678,502.61685181,5,10,1
1323442148.51350522,47.37532806,8.55029583,502.57543945,5,10,1
1323442148.56150794,47.37532806,8.55029583,502.58694458,5,10,1
1323442148.61355376,47.37532806,8.55029583,502.59844971,5,10,1
1323442148.66151333,47.37532806,8.55029583,502.60992432,5,10,1
1323442148.71266937,47.37532806,8.55029583,502.62136841,5,10,1
1323442148.76548553,47.37532806,8.55029488,502.57168579,5,10,1
1323442148.81366825,47.37532806,8.55029488,502.58285522,5,10,1
1323442148.86463809,47.37532806,8.55029488,502.59399414,5,10,1
1323442148.91350603,47.37532806,8.55029488,502.60510254,5,10,1
1323442148.96155357,47.37532806,8.55029488,502.61621094,4,9,1
1323442149.01255918,47.37532806,8.55029392,502.55606079,4,9,1
1323442149.06148577,47.37532806,8.55029392,502.56680298,4,9,1
1323442149.11255789,47.37532806,8.55029392,502.57751465,4,9,1
1323442149.16524148,47.37532806,8.55029392,502.58816528,4,9,1
1323442149.21354508,47.37532806,8.55029392,502.59881592,4,9,1
1323442149.26149797,47.37532806,8.55029297,502.54135132,4,9,1
1323442149.31351781,47.37532806,8.55029297,502.55166626,4,9,1
1323442149.36128974,47.37532806,8.55029297,502.56195068,4,9,1
1323442149.41284227,47.37532806,8.55029297,502.57220459,4,9,1
1323442149.46150017,47.37532806,8.55029297,502.58245850,4,9,1
1323442149.51252007,47.37533188,8.55029297,502.52270508,4,9,1
1323442149.56506038,47.37533188,8.55029297,502.53259277,4,9,1
1323442149.61705446,47.37533188,8.55029297,502.54248047,4,9,1
1323442149.66505718,47.37533188,8.55029297,502.55233765,4,9,1
1323442149.71348047,47.37533188,8.55029297,502.56216431,4,9,1
1323442149.76096630,47.37533188,8.55029297,502.50292969,4,9,1
1323442149.81251144,47.37533188,8.55029297,502.51245117,4,9,1
1323442149.86150718,47.37533188,8.55029297,502.52194214,4,9,1
1323442149.91264415,47.37533188,8.55029297,502.53137207,4,9,1
1323442149.96450996,47.37533188,8.55029297,502.54080200,4,9,1
1323442150.01268077,47.37533188,8.55029297,502.47891235,4,9,1
1323442150.06452751,47.37533188,8.55029297,502.48803711,4,9,1
1323442150.11350226,47.37533188,8.55029297,502.49713135,4,9,1
1323442150.16079593,47.37533188,8.55029297,502.50619507,4,9,1
1323442150.21275997,47.37533188,8.55029297,502.51522827,4,9,1
1323442150.26148582,47.37533188,8.55029106,502.43579102,4,9,1
1323442150.31251979,47.37533188,8.55029106,502.44439697,4,9,1
1323442150.36148572,47.37533188,8.55029106,502.45297241,4,9,1
1323442150.40150476,47.37533188,8.55029106,502.46151733,4,9,1
1323442150.46152782,47.37533188,8.55029106,502.46835327,4,9,1
1323442150.51255751,47.37533188,8.55029011,502.39443970,4,9,1
1323442150.56076789,47.37533188,8.55029011,502.40258789,4,9,1
1323442150.60166836,47.37533188,8.55029011,502.41067505,4,9,1
1323442150.66150141,47.37533188,8.55029011,502.41714478,4,9,1
1323442150.71351671,47.37533188,8.55029011,502.42681885,4,9,1
1323442150.75354290,47.37533569,8.55028915,502.34881592,4,9,1
1323442150.80660701,47.37533569,8.55028820,502.35498047,4,9,1
1323442150.86465621,47.37533569,8.55028820,502.36264038,4,9,1
1323442150.90466738,47.37533569,8.55028820,502.37182617,4,9,1
1323442150.96153641,47.37533569,8.55028820,502.37789917,3,9,1
1323442151.00643706,47.37533569,8.55028629,502.29641724,3,9,1
1323442151.06151962,47.37533569,8.55028629,502.30221558,3,9,1
1323442151.10156798,47.37533569,8.55028629,502.31085205,3,9,1
1323442151.16463447,47.37533569,8.55028629,502.31658936,3,9,1
1323442151.20358610,47.37533569,8.55028629,502.32516479,3,9,1
1323442151.25251722,47.37533569,8.55028629,502.22442627,3,9,1
1323442151.30452442,47.37533569,8.55028629,502.23104858,3,9,1
1323442151.35351467,47.37533569,8.55028629,502.23764038,3,9,1
1323442151.40456200,47.37533569,8.55028629,502.24417114,3,9,1
1323442151.46136427,47.37533569,8.55028629,502.25070190,3,9,1
1323442151.50451636,47.37533569,8.55028725,502.16030884,3,9,1
1323442151.55257893,47.37533569,8.55028725,502.16516113,3,9,1
1323442151.60136867,47.37533569,8.55028629,502.17120361,3,9,1
1323442151.65258288,47.37533569,8.55028629,502.17724609,3,9,1
1323442151.70596600,47.37533569,8.55028629,502.18325806,3,9,1
1323442151.75252247,47.37533951,8.55028629,502.08276367,3,9,1
1323442151.80151224,47.37533951,8.55028629,502.08828735,3,9,1
1323442151.85351896,47.37533951,8.55028629,502.09378052,3,9,1
1323442151.90127182,47.37533951,8.55028629,502.09924316,3,9,1
1323442151.96456528,47.37533951,8.55028629,502.10467529,3,9,1
1323442152.00531030,47.37533951,8.55028820,502.00347900,3,9,1
1323442152.05335569,47.37533951,8.55028820,502.00741577,3,9,1
1323442152.10126185,47.37533951,8.55028820,502.01232910,3,9,1
1323442152.15352917,47.37533951,8.55028820,502.01721191,3,9,1
1323442152.20561147,47.37533951,8.55028820,502.02206421,3,9,1
1323442152.25350595,47.37533951,8.55028915,501.90658569,3,9,1
1323442152.31264639,47.37533951,8.55028915,501.91088867,3,9,1
1323442152.35264826,47.37533951,8.55028915,501.91598511,3,9,1
1323442152.40494013,47.37533951,8.55028915,501.91937256,3,9,1
1323442152.45251298,47.37533951,8.55028915,501.92361450,3,9,1
1323442152.50461912,47.37533951,8.55029011,501.82302856,3,9,1
1323442152.56155968,47.37533951,8.55029011,501.82681274,3,9,1
1323442152.60158610,47.37533951,8.55029011,501.83135986,3,9,1
1323442152.65350628,47.37533951,8.55029011,501.83438110,3,9,1
1323442152.70096540,47.37533951,8.55029011,501.83810425,3,9,1
1323442152.75266409,47.37533951,8.55029202,501.74505615,3,9,1
1323442152.80094337,47.37533951,8.55029202,501.74835205,3,9,1
1323442152.85256767,47.37533951,8.55029202,501.75161743,3,9,1
1323442152.90566063,47.37533951,8.55029202,501.75491333,3,9,1
1323442152.96094751,47.37533951,8.55029202,501.75814819,1,9,1
1323442153.00168419,47.37533951,8.55029488,501.65332031,1,9,1
1323442153.05350804,47.37533951,8.55029488,501.65548706,1,9,1
1323442153.10084128,47.37533951,8.55029583,501.65817261,1,9,1
1323442153.15254092,47.37533951,8.55029583,501.66079712,1,9,1
1323442153.20150304,47.37533951,8.55029583,501.66339111,1,9,1
1323442153.25253534,47.37533951,8.55029583,501.58749390,1,9,1
1323442153.30094385,47.37533951,8.55029583,501.58978271,1,9,1
1323442153.36081743,47.37533951,8.55029583,501.59207153,1,9,1
1323442153.40086579,47.37533951,8.55029583,501.59475708,1,9,1
1323442153.45350242,47.37533951,8.55029678,501.59655762,1,9,1
1323442153.50153995,47.37533951,8.55029583,501.50918579,1,9,1
1323442153.55273199,47.37533951,8.55029583,501.51101685,1,9,1
1323442153.60149431,47.37533951,8.55029583,501.51281738,1,9,1
1323442153.65366459,47.37533951,8.55029583,501.51458740,1,9,1
1323442153.70066237,47.37533951,8.55029583,501.51632690,1,9,1
1323442153.75350833,47.37534332,8.55029678,501.42718506,1,9,1
1323442153.80538964,47.37534332,8.55029678,501.42849731,1,9,1
1323442153.85350370,47.37534332,8.55029678,501.42977905,1,9,1
1323442153.90554929,47.37534332,8.55029678,501.43106079,1,9,1
1323442153.95253444,47.37534332,8.55029774,501.43231201,1,9,1
1323442154.00152183,47.37534332,8.55029583,501.35375977,1,9,1
1323442154.05350518,47.37534332,8.55029583,501.35467529,1,9,1
1323442154.10455918,47.37534332,8.55029583,501.35552979,1,9,1
1323442154.15253162,47.37534332,8.55029583,501.35638428,1,9,1
1323442154.20363927,47.37534332,8.55029678,501.35720825,1,9,1
1323442154.25343609,47.37534332,8.55029583,501.26589966,1,9,1
1323442154.30546117,47.37534332,8.55029583,501.26626587,1,9,1
1323442154.35353780,47.37534332,8.55029583,501.26660156,1,9,1
1323442154.40148544,47.37534332,8.55029583,501.26690674,1,9,1
1323442154.45353365,47.37534332,8.55029678,501.26718140,1,9,1
1323442154.50175381,47.37534332,8.55029774,501.18475342,1,9,1
1323442154.56150389,47.37534332,8.55029774,501.18469238,1,9,1
1323442154.60150003,47.37534332,8.55029774,501.18453979,1,9,1
1323442154.65350032,47.37534332,8.55029774,501.18441772,1,9,1
1323442154.70154452,47.37534332,8.55029774,501.18423462,1,9,1
1323442154.75250793,47.37534714,8.55029774,501.11294556,1,9,1
1323442154.81327009,47.37534714,8.55029774,501.11245728,1,9,1
1323442154.85355353,47.37534714,8.55029774,501.11181641,1,9,1
1323442154.90155673,47.37534714,8.55029774,501.11138916,1,9,1
1323442154.95350718,47.37534714,8.55029774,501.11083984,0,10,1
1323442155.00152302,47.37534714,8.55029583,501.02572632,0,10,1
1323442155.05350685,47.37534714,8.55029583,501.02474976,0,10,1
1323442155.10126281,47.37534714,8.55029678,501.02374268,0,10,1
1323442155.15252090,47.37534714,8.55029678,501.02270508,0,10,1
1323442155.20151615,47.37534714,8.55029678,501.02163696,0,10,1
1323442155.25255680,47.37534714,8.55029583,500.94564819,0,10,1
1323442155.30155897,47.37534714,8.55029583,500.94427490,0,10,1
1323442155.36458206,47.37534714,8.55029583,500.94290161,0,10,1
1323442155.40163422,47.37534714,8.55029583,500.94119263,0,10,1
1323442155.45351624,47.37534714,8.55029583,500.94000244,0,10,1
1323442155.50502253,47.37534714,8.55029392,500.85995483,0,10,1
1323442155.55264425,47.37534714,8.55029392,500.85812378,0,10,1
1323442155.60148501,47.37534714,8.55029392,500.85629272,0,10,1
1323442155.65250731,47.37534714,8.55029392,500.85440063,0,10,1
1323442155.70164728,47.37534714,8.55029392,500.85250854,0,10,1
1323442155.75366998,47.37535095,8.55029106,500.76846313,0,10,1
1323442155.80166221,47.37535095,8.55029106,500.76617432,0,10,1
1323442155.85286379,47.37535095,8.55029106,500.76388550,0,10,1
1323442155.90148759,47.37535095,8.55029106,500.76156616,0,10,1
